Location: Boussy-Saint-Antoine
(48.6830°N, 2.5330°E)
Time: 07:56:49
(UTC+01:00)

ISS - Visible Passes

Search period start: 20 March 2019 00:00
Search period end: 30 March 2019 00:00
Orbit: 406 x 411 km, 51.6° (Epoch: 20 March)

Date Brightness Start Highest point End Pass type
(mag) Time Alt. Az. Time Alt. Az. Time Alt. Az.
21 Mar -2.0 20:27:17 10° S 20:28:53 18° SSE 20:28:53 18° SSE visible
22 Mar -1.7 19:37:34 10° SSE 19:38:57 12° SE 19:40:20 10° ESE visible
22 Mar -2.4 21:11:42 10° SW 21:13:34 30° SW 21:13:34 30° SW visible
23 Mar -3.2 20:20:55 10° SW 20:24:00 38° SSE 20:25:14 27° E visible
23 Mar -1.0 21:57:13 10° W 21:58:00 16° W 21:58:00 16° W visible
24 Mar -3.9 21:06:06 10° WSW 21:09:25 80° NNW 21:09:28 79° N visible
25 Mar -3.9 20:15:04 10° WSW 20:18:21 73° SSE 20:20:46 17° ENE visible
25 Mar -1.6 21:51:50 10° W 21:53:32 26° WNW 21:53:32 26° WNW visible
26 Mar -3.3 21:00:39 10° W 21:03:54 56° N 21:04:43 41° NE visible
27 Mar -3.6 20:09:28 10° W 20:12:46 70° NNW 20:15:48 12° ENE visible
27 Mar -2.1 21:46:22 10° WNW 21:48:32 34° NW 21:48:32 34° NW visible
28 Mar -3.1 20:55:11 10° WNW 20:58:24 48° N 20:59:33 32° NE visible
28 Mar -0.5 22:31:54 10° WNW 22:32:17 13° WNW 22:32:17 13° WNW visible
29 Mar -3.1 20:03:58 10° W 20:07:12 52° N 20:10:27 10° ENE visible
29 Mar -2.6 21:40:47 10° WNW 21:43:14 42° NW 21:43:14 42° NW visible
